Theta_e
323 323 324 324 324 324 324 324 323 323 322 321 321 322 322 322 321 321 321 321 321 321 320 318 317 315 314 313 313 313 312 312 312 312 311 310 309 309 309 309 311 312 313 312 313 313 313 313 313 314 314 312 313 313 313 314 314 314 314 314 314 314 314 314 314 314 315 315 315
322 323 323 323 323 323 322 322 321 321 320 319 319 320 320 320 320 320 320 321 321 321 320 318 315 314 313 312 312 312 311 310 310 309 309 308 307 307 307 307 308 310 311 312 312 312 312 312 311 312 312 311 311 311 312 312 312 312 312 312 312 313 314 314 314 314 315 315 315
322 322 323 323 323 322 322 321 321 320 319 319 318 318 318 318 318 318 318 319 319 320 319 318 315 313 312 311 310 310 309 308 308 307 307 306 305 305 305 305 306 307 309 310 310 310 310 309 310 310 311 311 311 311 311 310 310 310 310 310 311 311 311 312 312 312 313 313 314
321 322 322 322 322 322 322 321 321 321 320 320 320 319 318 318 318 318 318 317 317 318 317 316 314 313 312 310 309 308 308 308 307 307 306 305 304 303 303 303 304 305 305 306 306 307 307 308 309 309 309 309 309 309 309 309 308 308 308 309 309 309 308 309 309 309 310 310 311
319 319 320 321 322 322 322 322 321 321 321 322 321 321 320 320 319 319 318 317 316 316 316 315 313 312 312 312 310 308 308 309 308 306 304 303 302 301 301 302 303 303 303 303 304 304 305 306 307 307 307 308 308 308 308 307 306 306 307 307 307 307 306 306 307 307 307 308 308
316 316 316 318 319 321 322 322 320 320 320 320 321 321 321 321 320 319 318 318 316 316 314 314 313 312 312 311 310 308 307 307 306 304 302 301 300 299 299 300 301 302 301 301 301 302 303 305 306 306 306 307 307 306 305 305 305 304 304 304 304 305 305 304 305 305 305 305 306
313 313 313 314 316 318 319 319 318 317 316 316 318 318 319 319 319 319 319 319 316 315 314 314 313 313 312 310 309 308 306 304 302 301 300 300 299 299 299 299 299 299 299 299 299 300 302 303 304 305 306 306 305 304 303 303 302 302 300 301 302 302 303 303 303 303 303 303 304
309 309 310 311 313 314 316 316 316 315 315 315 316 317 317 317 317 316 316 315 314 313 313 314 313 312 311 310 308 306 304 302 301 299 298 299 298 298 298 298 298 298 298 300 300 300 301 301 301 302 302 303 302 301 300 299 298 298 298 299 299 300 301 301 301 301 301 302 302
307 307 308 308 310 311 312 313 313 313 314 314 315 315 316 316 315 314 314 313 312 311 311 311 311 310 309 308 308 306 304 303 301 300 299 298 299 299 298 298 298 298 298 299 299 299 298 299 299 300 300 299 298 298 297 296 296 296 297 298 298 299 299 299 299 299 300 300 301
306 306 306 306 307 308 308 309 310 311 312 312 312 312 313 314 314 313 313 312 311 309 309 309 308 308 308 307 306 306 305 304 303 301 300 299 299 299 298 298 298 297 297 296 297 297 297 297 297 296 296 295 295 295 295 294 294 295 295 296 297 297 297 299 299 299 299 299 299
305 305 305 305 305 306 306 307 307 308 309 309 309 308 309 310 310 310 310 310 309 308 307 307 307 307 307 306 306 306 305 304 303 302 301 300 300 299 298 298 298 297 296 295 296 296 296 296 295 294 293 292 293 293 293 293 292 292 293 294 295 295 295 296 297 298 298 298 298
303 303 303 303 304 304 305 305 306 306 306 306 306 306 306 307 307 307 307 307 306 306 306 305 306 306 306 306 305 305 304 303 303 302 301 300 299 298 298 297 296 295 295 295 296 296 296 296 294 293 292 291 291 292 292 292 292 291 291 291 292 293 294 295 295 296 297 297 297
302 302 302 302 303 303 304 304 304 304 304 304 304 304 304 304 305 305 305 305 305 305 304 304 304 305 305 304 303 303 303 302 302 301 301 300 298 298 297 296 295 295 294 294 295 295 295 295 294 294 293 292 291 291 291 292 291 291 291 291 292 293 294 295 295 295 296 296 297
300 300 300 300 301 302 302 302 303 303 302 302 302 302 302 302 303 303 304 304 304 303 302 302 303 303 303 302 301 301 301 301 301 300 300 299 298 297 296 295 295 294 294 293 294 294 294 294 294 294 295 295 293 292 292 292 292 293 294 294 294 294 295 295 295 295 295 295 296
299 299 299 299 300 300 301 301 301 301 301 301 300 300 300 300 301 302 302 302 301 301 301 300 301 301 301 300 300 300 300 300 300 300 299 298 297 297 296 295 295 294 294 294 294 294 294 294 294 295 297 297 296 295 294 293 295 296 296 296 296 295 295 295 295 295 295 296 296
298 297 297 298 299 299 299 300 300 300 300 300 299 298 298 299 299 300 301 300 300 300 300 299 299 299 299 300 300 300 300 300 300 300 299 298 297 297 296 296 295 296 295 295 295 295 296 296 297 297 298 297 297 297 296 296 295 295 295 296 296 295 295 294 295 295 295 296 296
297 296 296 297 298 298 299 299 299 299 299 298 298 297 298 298 298 299 300 299 299 299 299 298 298 298 298 299 299 300 300 301 300 300 299 298 297 297 296 296 297 297 297 297 297 298 298 298 298 298 297 297 297 297 297 296 296 296 296 296 296 295 295 295 296 295 295 296 296
295 295 296 296 297 297 298 298 298 298 297 297 297 296 296 296 297 297 298 298 298 298 298 297 296 296 296 297 297 299 300 300 299 299 298 298 297 297 296 296 297 297 298 298 299 299 299 298 298 297 297 297 296 296 296 296 296 296 296 296 296 295 295 295 295 295 295 295 296
295 295 295 295 296 296 297 297 296 296 296 296 296 295 295 295 295 296 296 296 297 297 297 295 295 294 294 295 295 296 298 298 298 298 297 297 296 296 296 295 296 296 297 298 298 298 298 298 298 297 297 296 296 296 295 295 295 295 295 295 295 295 294 294 294 294 294 295 295
296 296 296 296 297 296 296 296 295 295 295 294 294 294 293 293 294 294 295 294 294 294 294 294 294 293 293 292 293 294 295 295 296 296 295 294 295 295 295 295 295 295 296 297 297 297 297 297 297 297 297 297 296 296 295 295 295 295 295 295 295 295 294 294 294 294 294 294 294
297 297 297 297 297 296 295 295 294 294 294 293 293 293 293 292 293 293 293 293 293 292 293 293 293 292 292 291 291 291 291 292 292 292 292 293 293 294 294 295 295 295 296 297 297 297 297 297 297 296 296 296 295 295 295 295 295 295 295 295 295 295 295 294 294 294 294 294 294
297 297 296 296 295 294 294 293 293 293 293 292 292 292 292 292 292 292 292 292 291 292 292 292 292 292 292 291 291 290 290 290 290 290 290 291 291 292 293 294 295 295 296 296 297 297 297 296 296 296 295 295 295 295 295 295 295 294 294 294 294 294 294 294 294 293 294 294 294
296 295 294 294 293 294 294 293 292 292 292 292 292 292 292 291 291 291 291 291 292 292 292 291 291 291 291 290 290 290 289 289 289 289 289 290 290 291 292 293 294 295 295 296 295 295 295 295 295 295 295 294 293 293 293 293 293 293 293 293 293 294 294 294 293 293 293 293 293
295 294 293 292 291 292 292 291 291 291 292 292 292 291 291 290 291 291 291 290 291 291 291 290 290 290 290 290 290 291 291 290 290 290 290 290 291 291 291 292 294 295 295 294 295 295 295 295 294 294 294 295 293 292 291 291 291 291 291 292 293 294 294 293 292 292 292 292 293
293 293 292 291 290 290 290 290 291 291 292 291 291 290 290 290 291 291 290 290 290 290 290 290 290 290 290 290 291 291 292 292 291 291 291 292 292 293 293 293 294 294 294 295 297 298 298 297 297 296 295 295 294 293 292 291 291 292 293 294 295 294 293 292 292 292 292 292 292
292 292 291 290 290 290 290 290 291 291 291 291 290 290 290 290 290 290 290 290 289 289 289 289 290 291 291 291 291 291 292 292 292 292 293 293 293 294 294 293 294 294 294 296 298 299 300 300 300 299 298 296 295 294 294 293 293 294 294 295 295 294 293 292 292 292 292 291 291
291 291 290 289 289 289 290 290 291 290 290 290 290 290 290 290 290 290 290 290 290 289 289 289 290 292 293 291 291 292 292 294 293 293 293 293 293 294 294 293 294 294 294 296 298 299 299 300 300 300 299 297 295 295 294 293 293 294 294 295 294 294 294 293 292 292 291 291 289
290 290 290 289 289 289 289 289 289 290 290 290 290 290 290 289 289 289 289 289 289 289 289 290 291 292 292 291 292 292 293 294 294 294 294 294 294 294 294 294 293 293 294 296 298 298 299 299 299 299 299 298 295 294 293 293 294 294 294 294 294 293 293 292 292 291 291 289 289
290 290 289 289 289 289 289 288 289 290 290 290 289 289 289 289 289 289 289 289 290 290 291 291 293 293 292 292 292 292 292 293 294 294 294 293 293 293 293 293 292 292 294 297 297 298 298 298 299 299 299 298 295 294 293 294 295 295 294 293 293 293 292 292 291 290 289 288 289
289 289 289 290 290 289 289 289 290 290 289 289 288 288 289 290 290 290 291 291 292 292 293 293 293 293 293 293 292 292 292 292 292 292 292 292 292 292 292 292 290 290 292 296 297 297 297 298 298 298 298 298 297 295 294 294 294 294 293 293 292 291 291 290 290 289 289 289 289
289 289 289 290 290 290 290 290 289 288 288 288 288 289 290 291 291 291 291 291 292 293 293 293 293 293 292 292 292 291 291 290 290 291 291 291 292 291 290 289 287 288 290 294 296 297 297 297 297 297 298 298 297 295 294 293 293 293 292 292 291 290 290 289 289 289 289 289 289
288 289 289 290 290 290 290 288 288 287 287 287 288 289 290 291 292 292 292 292 293 293 293 292 292 292 292 291 291 291 290 289 289 289 289 289 289 289 288 286 286 286 288 293 295 296 296 296 297 297 297 298 297 294 292 291 292 292 292 291 290 290 290 289 289 289 288 288 289
288 288 289 290 290 290 289 287 286 286 287 288 289 290 290 291 292 292 293 293 293 292 292 292 292 292 291 291 290 290 290 289 289 289 289 289 288 288 287 287 286 287 290 293 295 296 296 296 297 297 297 298 296 293 290 290 290 291 291 290 289 289 289 289 288 288 288 288 288
288 288 288 290 290 289 288 287 286 286 286 287 288 289 290 291 292 292 293 292 292 292 292 292 293 292 292 291 291 290 290 290 289 289 288 289 288 288 288 289 288 290 292 294 295 296 296 296 297 297 297 298 294 291 290 290 290 290 290 289 288 288 288 288 287 287 287 287 287
288 288 288 289 289 288 287 286 286 286 287 288 288 289 290 290 291 292 292 293 292 292 292 292 292 292 291 291 291 290 290 290 289 289 289 289 289 289 289 289 289 290 292 294 295 296 296 296 296 297 297 297 292 290 290 290 290 289 289 288 287 286 286 286 285 285 285 286 287
289 289 289 289 288 287 287 286 286 286 287 288 289 289 290 290 290 291 292 293 292 291 291 291 291 291 290 290 290 290 290 289 289 289 289 290 289 289 289 289 288 289 292 293 294 295 296 296 296 297 297 294 291 290 290 290 289 288 288 287 286 285 284 284 284 284 284 284 286
289 289 289 289 288 287 286 286 286 287 287 288 289 289 289 290 289 290 292 292 291 291 290 290 290 290 289 289 288 288 289 288 289 289 290 290 289 289 288 288 287 288 289 292 294 295 296 296 297 297 296 292 290 289 289 289 288 288 287 286 285 284 284 283 283 283 283 284 285
290 290 289 289 288 287 287 286 287 287 288 288 288 288 288 289 288 290 291 292 291 290 290 290 289 289 289 288 287 287 287 287 288 289 289 289 289 288 288 288 286 286 287 290 293 294 296 297 298 297 295 290 289 288 288 288 288 287 286 286 285 284 283 282 282 283 283 284 287
291 290 290 290 289 288 287 287 287 288 288 288 287 287 288 289 289 290 291 292 291 290 290 289 289 289 288 288 287 287 286 287 288 288 288 288 288 289 289 288 286 286 287 290 292 294 296 297 298 297 294 290 288 287 287 287 287 286 286 285 284 283 282 281 282 282 283 285 289
292 291 290 290 289 289 288 288 288 288 288 287 287 288 288 289 290 291 291 292 291 290 290 289 289 289 289 289 288 287 286 286 287 287 288 288 288 290 290 288 286 285 287 290 292 294 296 298 298 296 294 289 286 286 286 287 286 285 285 284 284 284 283 281 281 281 282 283 288
292 292 291 291 291 291 290 290 290 290 289 289 289 290 291 291 292 291 291 291 291 290 290 290 289 289 289 289 288 287 286 286 286 287 288 289 289 290 290 289 287 286 286 288 291 294 296 298 297 296 293 288 285 285 286 286 286 285 285 284 284 284 283 282 281 281 281 281 282
Wind_Speed
7 6 6 5 4 4 3 3 4 4 4 4 4 4 3 3 3 3 3 2 2 2 3 3 2 2 1 2 3 3 4 3 2 2 3 3 3 3 3 2 3 5 7 6 4 4 3 3 2 2 2 2 2 2 2 1 2 2 2 2 2 2 2 3 3 3 4 4 4
7 6 5 3 2 3 3 3 3 4 4 4 4 5 5 5 5 5 5 4 3 3 4 4 3 3 2 2 2 3 4 4 4 3 3 3 3 2 2 1 3 5 6 6 5 4 3 3 2 2 2 2 2 2 2 2 2 2 2 2 2 2 2 2 3 3 3 4 3
6 5 4 2 1 1 2 3 3 4 4 4 4 4 5 5 5 6 6 5 5 4 4 4 3 3 4 4 3 3 4 4 4 4 4 3 3 3 2 3 3 4 4 5 4 4 3 3 3 2 2 2 2 2 2 1 1 1 1 2 1 1 1 1 2 2 2 2 3
5 5 3 2 2 3 3 3 4 4 5 4 4 5 5 5 5 5 6 6 6 5 5 5 4 4 5 5 4 4 4 5 5 5 5 4 5 5 4 3 2 3 4 4 4 3 3 3 2 2 2 2 2 2 2 1 1 0 1 1 0 0 0 1 1 1 2 2 3
5 4 4 4 5 5 5 4 5 5 5 4 5 5 5 5 5 5 6 6 7 7 7 7 6 6 6 6 6 6 6 6 6 6 5 5 5 4 3 2 3 3 3 3 3 3 3 3 2 1 1 2 1 2 2 2 1 1 1 0 0 0 1 1 1 1 2 2 2
4 4 4 4 6 6 6 5 6 5 4 4 4 5 5 5 5 6 8 9 9 10 10 10 9 8 8 8 7 7 6 6 5 5 5 5 4 3 3 4 4 3 3 3 3 3 3 3 2 1 1 1 1 1 1 2 1 1 1 1 1 0 1 1 1 1 2 3 3
3 4 4 5 6 6 7 6 6 5 4 3 5 6 7 6 6 7 8 9 9 9 10 10 10 10 10 9 8 7 6 5 5 5 5 5 4 4 5 4 4 3 3 3 3 3 3 2 2 2 2 1 1 1 1 1 1 1 1 1 1 1 1 1 1 2 2 3 3
3 3 4 5 5 6 7 7 6 5 5 5 6 7 8 8 8 7 7 5 6 7 8 9 10 11 11 10 10 9 8 7 6 5 5 5 5 5 5 5 4 3 3 3 3 3 3 2 2 2 2 1 1 1 1 1 1 2 2 1 1 1 1 1 1 1 2 2 2
2 2 3 3 4 5 6 7 7 6 6 7 8 9 9 8 8 8 7 5 5 5 6 7 9 10 10 10 10 10 9 9 8 7 6 6 6 6 5 4 4 4 3 3 3 3 3 3 2 2 2 1 1 1 0 0 1 2 2 1 1 1 1 1 0 0 1 1 1
2 1 1 2 3 4 5 5 6 7 7 8 9 9 8 8 8 7 6 5 4 4 4 5 6 7 8 9 9 9 9 9 9 9 8 7 7 6 5 4 4 4 4 3 3 3 3 3 3 2 2 2 2 1 1 1 2 2 2 1 0 0 0 0 0 1 1 1 2
1 1 0 1 1 2 3 4 5 5 6 7 7 6 6 6 6 5 4 2 2 3 4 3 4 5 6 6 7 7 7 7 8 8 9 8 7 6 6 5 5 5 4 4 3 3 3 3 3 3 2 2 2 2 1 2 2 2 1 0 0 0 1 1 1 1 1 1 1
1 1 1 1 1 2 2 3 3 4 4 5 4 4 4 3 3 2 1 1 2 2 2 1 2 2 3 2 2 3 3 4 5 7 8 8 8 7 6 5 5 5 4 4 4 3 3 3 4 4 3 2 2 2 2 2 2 2 1 0 0 1 1 2 1 1 1 1 1
2 2 2 2 2 2 3 3 3 3 3 3 3 3 2 2 2 2 3 3 3 2 2 1 1 1 1 1 0 0 1 1 2 3 5 7 7 7 7 5 5 4 4 3 3 3 3 4 4 5 4 3 2 2 2 3 3 2 1 0 0 1 1 2 2 1 1 1 1
2 3 3 3 3 3 3 3 3 3 3 4 4 3 3 3 3 3 4 4 4 4 3 2 1 1 1 1 1 1 1 1 1 2 3 5 6 7 7 6 5 4 4 3 3 3 4 4 4 5 5 4 3 3 3 3 3 2 1 0 0 1 1 2 2 1 1 1 2
2 3 3 3 4 4 4 4 3 4 4 4 4 4 4 4 4 4 4 5 5 4 3 3 2 1 1 2 2 2 2 2 2 2 3 4 5 6 7 6 5 5 4 4 4 4 4 4 4 4 4 4 4 4 3 3 3 2 1 0 0 1 1 1 1 1 1 2 2
2 3 3 4 4 4 4 4 4 4 4 5 5 4 4 4 4 4 4 5 4 4 3 3 3 2 2 2 3 3 4 4 4 4 4 4 5 6 7 6 6 6 5 5 5 4 4 4 4 4 4 4 4 3 3 3 2 2 1 1 1 1 1 2 2 1 1 1 2
3 3 3 4 5 5 5 5 4 4 5 5 5 5 5 4 4 4 4 5 5 4 4 4 3 3 2 2 3 3 4 4 4 5 5 5 5 6 6 7 6 6 6 6 6 5 5 4 4 3 3 3 3 3 3 2 2 1 1 1 1 2 2 2 2 2 1 2 2
3 3 4 4 5 6 6 6 6 5 6 6 6 5 5 5 5 4 4 5 5 5 6 5 4 3 3 3 3 3 4 4 5 5 5 5 6 6 7 7 6 7 7 7 6 6 6 5 4 4 3 3 3 3 3 2 1 1 1 2 2 2 2 2 2 2 2 2 3
4 4 4 5 6 7 7 7 6 6 5 5 5 5 5 5 5 5 5 4 5 6 7 6 5 4 3 4 3 3 4 4 5 5 5 6 6 6 7 7 6 6 6 7 6 6 6 5 5 4 4 3 3 3 2 2 2 2 2 2 2 2 3 3 3 3 2 3 3
5 5 6 6 7 7 7 7 6 5 4 4 5 5 5 5 5 6 6 5 5 5 6 6 5 4 4 4 4 4 4 4 5 6 6 6 6 7 7 7 7 6 6 7 6 6 6 5 5 4 4 3 3 3 2 2 2 2 2 3 3 3 4 4 4 4 3 3 3
6 6 6 6 6 7 6 6 4 4 3 4 5 6 6 5 5 5 6 6 5 5 5 6 6 6 5 5 5 4 4 3 5 5 6 6 6 7 7 7 7 6 6 6 6 6 5 5 4 4 4 3 3 2 2 2 2 3 3 3 4 4 4 4 4 4 4 4 4
7 6 5 5 5 5 5 4 3 3 3 4 5 5 5 5 5 5 5 5 5 5 5 5 6 6 7 7 6 5 4 3 3 4 5 5 5 5 6 6 7 6 6 6 6 5 5 4 4 4 4 3 2 2 2 2 3 3 4 4 4 4 4 4 4 4 4 3 3
6 5 4 3 3 4 3 3 3 3 3 4 5 5 5 5 4 4 4 4 4 4 4 4 5 6 7 7 6 6 5 3 3 3 3 4 4 4 4 5 6 6 6 5 5 5 4 4 4 4 3 3 2 2 2 2 3 3 4 4 4 4 4 4 3 3 3 2 2
5 4 3 2 3 3 3 3 4 4 5 5 5 5 5 5 4 4 4 4 5 5 5 4 4 5 6 6 6 6 6 5 4 4 3 4 4 4 4 4 4 5 5 4 4 5 4 4 3 3 3 3 2 2 2 2 3 3 4 5 5 4 4 3 3 3 2 2 2
5 4 3 3 3 4 4 5 5 6 6 6 5 5 5 5 5 5 5 5 5 5 5 5 5 5 5 5 6 6 6 5 5 5 4 4 4 4 4 3 3 3 3 3 5 5 5 4 4 3 3 3 3 3 3 3 3 4 4 5 5 4 3 3 3 3 3 3 2
4 4 4 4 4 4 5 6 6 7 6 5 5 5 5 5 5 5 5 6 5 5 5 5 5 5 5 5 5 5 5 5 5 6 6 5 5 4 4 3 3 2 2 3 5 5 5 5 5 5 3 3 3 3 3 3 4 4 5 5 5 4 4 3 4 3 3 2 2
4 4 4 4 4 5 6 6 6 6 5 5 6 6 6 5 5 5 6 6 5 5 5 5 5 5 6 5 5 5 5 4 5 5 6 6 6 5 4 3 3 2 3 4 5 5 6 6 7 7 6 4 3 3 3 3 3 4 5 5 4 4 4 4 4 4 3 2 1
5 5 4 4 5 6 6 6 6 6 7 7 7 7 6 6 6 6 6 5 5 5 4 4 4 4 4 4 5 5 5 5 5 5 5 5 5 5 5 4 3 3 3 4 5 6 7 7 8 9 8 6 3 2 2 3 3 4 4 4 4 3 3 4 4 4 3 2 1
6 5 5 5 6 6 6 6 7 8 8 7 7 7 6 6 7 6 6 6 6 5 5 4 3 3 3 4 4 5 5 5 5 5 4 5 5 4 4 4 3 3 4 5 6 6 7 8 8 9 9 8 4 2 2 3 3 3 3 3 3 3 3 3 3 3 3 3 2
6 6 6 7 7 7 7 7 8 7 7 6 6 6 6 7 7 7 7 7 7 6 5 4 4 4 5 5 5 5 4 4 4 4 4 5 5 4 4 3 3 3 4 5 6 7 7 7 8 8 8 7 4 3 2 2 3 3 3 3 3 3 3 3 3 3 3 3 3
6 6 6 7 7 8 7 7 6 6 5 5 6 6 7 7 8 8 7 7 6 5 5 5 5 6 6 5 5 5 4 4 4 4 4 5 5 4 4 3 3 3 4 6 7 7 7 7 7 8 7 7 5 3 2 2 3 3 3 3 4 4 4 4 4 4 4 4 3
6 6 7 7 8 8 7 6 5 5 5 6 6 7 8 8 8 7 6 6 6 6 6 6 6 6 6 5 5 5 5 5 4 4 4 5 4 4 3 3 3 4 5 7 7 7 7 7 7 7 7 7 5 3 2 3 3 3 3 4 4 4 4 4 4 4 4 4 4
6 6 7 7 8 7 6 5 5 5 5 6 7 8 8 8 6 6 6 5 6 6 7 7 8 7 7 6 6 6 5 5 5 5 5 5 4 4 3 3 3 4 6 7 7 7 7 7 7 7 7 8 4 2 3 3 3 3 3 3 3 4 4 4 4 4 4 4 4
6 6 7 8 8 7 6 5 5 5 6 6 7 7 7 7 6 6 6 6 6 6 6 7 7 7 7 7 6 6 6 6 5 5 5 5 5 4 4 4 3 4 6 7 7 6 6 7 7 7 8 7 3 2 3 3 3 3 3 3 3 3 3 4 4 4 4 3 3
6 6 7 7 7 6 5 5 5 5 6 7 7 8 7 7 7 7 7 6 6 5 5 5 5 5 5 5 5 6 6 6 6 6 6 6 5 5 5 5 4 5 6 7 7 6 6 7 8 8 7 4 2 3 4 4 3 4 4 4 3 3 3 4 4 4 3 3 3
7 7 7 7 7 6 6 5 6 6 7 8 8 8 7 7 6 6 6 6 5 5 5 4 4 4 4 4 4 5 6 6 6 6 6 6 5 5 5 5 5 6 7 7 7 7 7 7 8 8 5 2 3 3 3 3 3 4 4 4 4 4 3 3 3 3 3 3 3
7 7 8 8 7 7 6 6 6 7 8 9 9 8 7 7 5 5 5 6 5 5 5 5 5 5 5 5 5 5 5 6 6 6 6 6 6 5 5 5 5 5 6 7 7 8 8 8 8 6 3 4 4 4 3 3 3 3 4 4 4 3 3 3 3 3 3 3 3
8 8 8 8 8 7 7 7 7 8 9 9 8 7 6 6 5 5 5 6 6 6 6 6 6 6 6 6 5 5 5 6 6 6 6 6 6 6 5 5 5 5 6 7 8 8 8 8 7 5 5 5 4 4 4 3 3 3 3 3 3 3 2 2 2 2 3 3 4
8 8 8 8 8 8 7 8 8 9 9 8 7 6 5 5 5 5 5 6 6 6 7 7 7 7 6 6 6 5 5 6 6 6 6 6 6 6 6 5 5 5 6 7 8 8 8 8 6 6 7 6 5 4 4 4 4 3 3 3 3 3 2 2 2 2 2 3 6
8 8 8 8 8 8 8 8 9 9 8 6 6 6 6 6 6 6 6 5 5 6 6 7 7 7 7 7 6 6 6 6 6 6 6 6 6 7 7 6 5 5 6 7 8 9 8 6 6 8 8 6 5 4 4 4 4 4 3 3 3 3 2 2 1 1 2 2 4
7 7 8 8 8 8 8 9 9 8 8 7 8 7 7 6 6 6 6 6 6 6 6 6 7 7 7 7 6 6 6 7 7 7 6 7 6 7 7 6 5 5 5 6 8 8 8 7 9 10 9 6 5 4 4 4 4 4 4 3 3 3 3 2 1 1 1 1 2
Wind_Direction
224 224 222 215 193 181 183 201 213 220 224 224 219 207 191 169 163 155 147 145 166 188 196 200 201 195 176 154 144 138 133 127 117 97 87 88 99 115 135 153 135 117 113 124 164 197 212 212 206 201 195 189 180 172 163 159 172 190 206 219 228 237 246 254 259 259 256 251 249
214 221 230 233 177 156 162 183 196 202 202 197 189 179 169 161 157 153 152 157 178 195 204 208 201 189 175 171 161 148 140 135 128 116 101 91 93 101 114 116 103 112 126 151 175 191 203 204 202 201 195 184 169 165 168 173 176 191 209 222 228 238 247 256 261 265 266 264 264
216 224 237 260 245 197 187 192 194 192 188 185 178 171 168 168 167 162 160 167 185 202 215 221 208 187 172 168 165 155 148 145 140 132 123 118 114 103 85 76 94 118 142 163 177 188 196 199 197 193 189 182 175 176 176 162 149 180 221 235 241 254 267 269 280 286 288 283 281
226 227 228 226 212 207 208 210 200 191 186 183 182 180 180 180 177 170 164 167 183 199 212 215 200 183 173 171 171 168 162 155 147 143 140 139 121 106 96 97 134 154 163 170 180 188 194 195 191 186 180 175 170 165 152 123 119 177 238 249 254 266 262 261 278 285 285 279 277
235 229 220 207 199 201 207 215 209 202 194 188 189 192 194 194 186 175 170 172 186 195 198 193 186 181 180 178 172 168 163 157 152 149 143 131 116 113 129 174 178 173 168 168 175 180 182 179 174 166 158 153 146 133 123 119 142 182 214 217 139 186 229 241 254 259 260 260 262
236 228 220 210 203 204 207 214 216 215 211 202 202 206 208 209 200 189 183 183 189 189 186 182 179 178 178 177 171 167 162 156 152 143 132 125 128 144 171 190 186 177 167 163 165 167 167 163 156 148 141 134 120 114 116 132 156 171 177 155 145 176 225 241 251 254 255 254 259
234 226 219 213 209 209 211 213 218 222 225 222 219 220 221 222 221 212 202 192 185 181 180 181 180 178 176 174 172 169 164 153 139 130 131 139 154 169 180 185 180 173 165 161 159 157 155 148 141 135 129 120 112 99 94 118 148 153 153 150 158 172 203 240 260 261 261 262 264
233 222 215 211 210 213 216 218 220 224 229 230 229 228 228 228 231 231 229 216 196 186 183 184 184 182 179 175 172 168 161 150 144 145 151 158 168 175 179 176 171 167 164 159 152 145 139 132 124 119 116 106 97 73 52 49 133 139 139 141 161 171 178 192 242 262 271 279 289
239 225 214 208 211 215 219 223 223 225 228 232 232 232 232 232 232 234 235 234 222 206 195 192 188 184 180 175 172 167 163 157 158 160 165 168 172 174 173 166 161 157 153 146 138 133 130 123 116 114 113 109 102 84 56 102 129 122 117 124 156 172 170 168 207 275 311 326 347
257 244 219 209 216 218 221 224 225 226 229 234 236 237 237 235 234 232 231 231 227 220 214 208 194 186 181 177 172 169 166 163 162 163 165 169 170 169 166 161 156 151 147 142 136 132 129 123 119 116 114 111 115 113 109 112 110 108 105 122 150 148 115 84 58 33 21 11 9
248 233 189 187 205 208 211 217 222 225 228 234 238 239 238 236 233 233 232 229 219 219 219 217 197 188 183 179 176 172 169 166 163 162 162 164 164 162 160 157 152 149 146 145 143 140 135 132 128 127 124 118 119 116 111 105 105 107 113 159 148 60 34 12 23 35 36 24 13
192 164 145 145 150 164 179 195 206 213 219 225 229 228 227 226 221 214 194 171 188 198 206 204 190 183 179 176 175 174 173 171 166 161 158 157 155 152 150 148 145 143 142 143 145 145 143 142 139 137 135 135 128 126 127 128 119 116 118 180 82 38 20 356 355 11 33 38 20
164 152 147 146 147 154 165 178 185 190 194 197 196 192 185 177 158 146 144 151 159 156 143 116 123 128 122 104 93 199 224 212 185 169 158 152 147 144 142 141 139 137 135 138 143 145 146 146 144 142 142 147 146 151 154 153 139 131 124 81 30 16 2 342 332 341 7 26 12
157 154 156 156 157 161 166 173 176 175 174 173 173 168 161 153 149 148 149 152 150 144 137 129 119 104 92 98 118 156 202 225 212 183 161 148 142 139 137 136 135 133 131 133 138 143 147 150 150 148 148 151 156 166 171 170 154 143 132 105 357 344 334 320 315 329 348 352 336
168 166 165 162 164 168 173 177 178 174 171 171 170 165 161 160 159 156 152 150 147 144 140 139 137 129 121 128 147 157 167 176 183 179 167 153 142 137 135 133 133 133 133 134 138 143 148 151 152 151 148 150 157 165 172 170 156 146 143 173 276 295 296 290 292 308 325 325 317
192 183 174 170 173 177 182 185 183 179 177 177 173 168 165 165 161 155 150 148 145 142 141 144 143 139 135 144 153 158 162 168 173 175 172 164 149 140 135 135 138 139 139 139 140 142 145 148 146 143 142 144 149 152 152 149 142 144 158 197 228 250 259 264 271 282 294 299 298
206 196 186 180 184 188 192 194 190 186 183 180 175 171 168 165 160 155 151 148 145 145 149 151 147 145 147 156 161 162 164 169 174 177 177 170 155 146 140 141 143 145 144 141 139 137 136 134 129 128 131 135 135 132 128 126 131 151 184 212 225 236 247 256 259 263 268 275 275
216 205 196 192 195 198 200 200 196 191 186 181 176 172 168 161 158 156 153 150 149 152 154 155 152 151 153 160 168 171 171 172 178 180 178 169 157 148 143 143 144 143 141 137 133 130 128 125 123 123 124 126 123 121 120 124 143 178 204 220 227 234 241 248 243 241 243 253 258
221 210 202 201 204 205 206 206 201 195 188 180 174 169 164 161 158 155 154 155 155 154 154 154 154 154 156 160 168 175 179 177 179 178 174 164 153 146 141 139 137 134 131 127 124 123 124 124 125 127 129 128 128 130 137 150 173 196 215 228 234 235 233 230 226 222 223 231 242
228 217 210 207 207 208 209 208 205 198 188 177 169 165 163 162 158 157 158 162 158 153 150 151 153 156 159 161 166 176 185 185 177 173 168 159 150 144 140 136 131 127 123 120 121 123 126 127 131 136 139 140 143 152 164 180 201 222 234 241 241 237 230 222 216 213 213 219 227
238 227 219 213 209 208 209 207 202 194 182 173 170 167 165 163 162 162 162 161 153 148 148 153 156 160 163 165 168 176 185 189 175 168 162 155 149 144 140 134 130 126 123 122 126 129 134 137 144 150 154 157 166 178 196 221 246 259 261 257 250 241 231 222 214 210 210 213 218
248 239 230 220 213 208 205 199 192 184 180 178 175 170 166 164 166 165 160 151 148 150 154 160 163 166 168 170 170 171 174 176 166 159 153 148 143 139 135 131 129 129 130 133 137 140 145 151 159 166 172 179 193 212 237 263 274 277 274 268 258 249 238 227 218 211 208 209 213
257 251 240 225 214 204 196 186 180 180 183 185 180 174 168 166 164 160 154 150 154 158 162 165 168 170 171 170 166 161 157 152 145 138 134 131 128 125 123 124 129 134 139 143 145 148 152 160 170 178 186 194 209 229 248 265 273 276 276 272 265 256 244 230 218 209 205 206 210
261 254 241 218 203 192 184 176 178 183 188 189 184 177 170 165 161 158 155 156 159 161 162 163 165 167 166 164 160 156 151 146 139 131 123 118 117 117 118 120 130 139 145 150 154 158 161 166 177 187 196 204 214 224 234 242 252 260 265 269 266 257 242 221 208 200 196 200 208
259 250 235 213 200 190 183 179 184 189 191 190 183 176 170 166 164 162 160 159 160 159 158 157 158 158 158 157 156 154 150 147 144 139 134 126 124 124 125 127 134 141 149 158 170 177 183 193 200 204 206 212 218 222 222 223 231 242 252 260 259 251 233 211 203 198 196 195 201
256 245 233 216 203 195 191 191 191 191 190 186 181 178 175 173 170 165 162 160 161 159 156 154 155 155 155 154 151 148 146 146 147 146 145 142 140 139 138 141 145 149 161 177 191 203 217 234 246 250 249 236 233 229 225 221 224 234 244 253 253 244 226 208 206 203 200 191 191
253 242 233 220 206 202 201 198 195 191 189 185 183 183 181 176 172 167 163 161 161 159 157 154 155 156 155 151 149 148 148 150 152 152 152 151 151 153 155 159 160 164 177 195 214 230 245 256 266 270 272 264 252 241 235 232 231 234 241 247 246 236 220 207 205 203 198 189 184
252 241 232 220 214 211 208 201 196 194 193 190 189 185 180 172 170 168 164 161 159 159 158 159 158 155 152 150 153 154 155 155 157 157 157 156 158 160 163 167 169 178 192 209 228 243 254 262 269 273 275 273 261 243 233 236 235 235 234 235 233 225 214 205 200 195 190 186 188
252 241 230 220 220 217 212 204 202 201 199 194 189 182 175 171 172 170 166 162 163 164 165 166 161 156 154 157 158 157 156 157 157 158 158 160 162 165 168 171 176 194 213 225 237 247 255 263 268 272 274 274 264 242 227 231 234 230 223 218 214 208 202 197 191 186 183 184 183
252 241 231 225 224 221 217 212 209 205 199 191 184 178 175 175 177 176 174 172 174 174 172 166 164 164 165 165 162 160 159 158 155 155 158 164 169 173 177 181 193 218 235 241 245 250 257 264 268 270 271 271 265 248 225 226 226 219 210 202 197 193 189 185 181 180 180 182 179
251 241 233 230 229 226 222 217 211 204 195 186 183 182 182 184 186 185 183 180 179 175 169 164 166 169 169 166 163 162 160 157 155 157 161 168 174 177 180 185 206 232 246 250 250 253 257 262 264 267 269 272 270 256 221 210 210 207 200 192 189 185 182 178 177 178 180 181 177
250 240 236 235 235 232 227 218 209 199 190 187 189 190 192 193 192 190 186 181 175 170 169 171 173 172 170 166 166 163 161 158 161 163 166 169 172 175 180 193 216 233 243 247 248 250 254 259 264 268 272 273 270 250 202 192 196 194 190 183 181 179 177 175 176 177 179 182 179
250 241 237 238 238 236 230 218 205 196 191 192 196 198 199 199 195 190 185 180 177 176 177 180 180 178 175 173 171 169 167 166 168 170 171 171 170 174 185 204 220 230 235 240 243 248 254 262 267 271 272 270 264 224 172 174 179 179 176 171 169 168 167 167 169 173 176 181 180
251 242 238 239 240 238 231 217 203 195 195 199 204 205 204 201 196 192 189 186 184 184 184 185 184 182 178 176 175 175 176 175 174 174 175 175 175 182 194 210 219 226 231 237 243 250 257 263 266 267 266 263 243 170 152 160 162 161 156 149 146 148 151 156 157 160 164 170 171
251 242 240 240 240 236 228 215 203 198 199 205 210 211 209 204 200 196 192 188 185 185 187 188 184 180 177 178 177 178 178 178 177 178 179 179 183 193 206 217 225 232 236 240 245 250 254 258 261 261 259 249 156 137 146 155 155 152 147 141 137 136 138 140 143 145 149 155 158
250 241 239 239 237 232 223 212 204 202 206 211 213 213 211 209 205 199 192 183 181 183 185 184 178 176 177 180 182 183 182 180 179 180 181 182 187 197 209 221 230 238 243 246 249 250 251 254 257 256 250 166 130 135 147 150 150 147 145 142 141 140 139 137 139 139 142 150 157
249 239 235 236 233 227 219 208 204 207 212 216 216 214 211 209 208 201 191 181 182 186 187 184 181 182 185 185 186 186 183 180 181 182 184 186 190 198 209 221 232 241 247 251 254 254 255 255 254 245 209 128 135 142 147 146 146 145 145 146 145 144 141 141 142 143 146 155 163
250 238 231 231 229 223 215 207 207 211 215 218 217 214 209 203 204 201 195 187 188 190 191 190 190 191 191 187 186 184 183 182 186 186 186 187 191 196 206 220 232 241 248 253 257 258 259 257 247 215 164 138 146 149 149 147 148 150 151 150 146 141 137 136 144 148 154 164 172
252 238 229 226 224 219 214 209 211 214 216 217 216 212 206 198 201 202 200 194 193 193 194 194 196 194 190 183 183 183 185 188 192 192 190 189 193 198 205 217 231 241 248 253 259 261 259 251 220 176 155 147 150 151 150 148 150 152 154 153 149 143 138 134 138 147 158 171 179
253 238 228 223 221 217 213 212 215 216 215 213 212 209 205 201 202 201 200 197 196 197 197 198 197 192 186 182 183 185 187 190 197 198 196 192 198 204 209 215 226 239 248 255 260 260 253 228 185 163 154 147 148 147 147 147 150 155 160 162 160 157 153 147 139 142 156 174 184
254 238 228 223 219 216 214 215 217 216 213 210 210 209 206 201 200 197 196 197 198 199 200 201 196 191 186 185 186 186 188 191 198 201 199 194 200 207 212 214 221 232 244 253 260 257 243 202 172 162 157 149 148 146 146 147 153 163 171 176 173 170 166 162 156 153 158 171 193